Location: Orinda
(37.8771°N, 122.1797°W)
Time: 02:28:00
(UTC+00:00)

Centaur D-1AR AC-39 - Pass Details

Date: 21 October 2019
Orbit: 579 x 36203 km, 22.0° (Epoch: 21 November)

Event Time Altitude Azimuth Distance (km) Brightness Sun altitude
Exits shadow 13:15:23 - 215° (SW) 2,390 4.3 -14.0°
Reaches altitude 10° 13:16:49 10° 197° (SSW) 2,073 4.1 -13.7°
Maximum altitude 13:19:19 15° 158° (SSE) 2,172 4.7 -13.2°
Drops below altitude 10° 13:23:16 10° 122° (ESE) 3,527 6.4 -12.5°
Sets 13:31:02 0° 104° (ESE) 6,898 8.9 -10.9°
